Weather History for CWSP - February, 2014

Change the Weather History Date:

Sunday, February 9, 2014

  Actual Average Record
Temperature  
Mean Temperature 36 °F -  
Max Temperature 39 °F - - ()
Min Temperature 34 °F - - ()
Degree Days  
Heating Degree Days 28    
Moisture  
Dew Point 26 °F    
Average Humidity 64    
Maximum Humidity 85    
Minimum Humidity 38    
Precipitation  
Precipitation 0.02 in - - ()
Sea Level Pressure  
Sea Level Pressure 30.04 in    
Wind  
Wind Speed 7 mph ()    
Max Wind Speed 17 mph    
Max Gust Speed 18 mph    
T = Trace of Precipitation, MM = Missing Value Source: Averaged Metar Reports

Daily Weather History Graph

Daily Weather History Graph

Search for Another Location

Airport or City:

Trip Planner

Search our weather history database for the weather conditions in past years. The results will help you decide how hot, cold, wet, or windy it might be!

Date:

Astronomy

Feb. 09, 2014 Rise Set
Actual Time 7:32 AM PST 5:28 PM PST
Civil Twilight 6:59 AM PST 6:00 PM PST
Nautical Twilight 6:22 AM PST 6:37 PM PST
Astronomical Twilight 5:46 AM PST 7:14 PM PST
Moon 1:04 PM PST (2/9) 3:50 AM PST (2/9)
Length of Visible Light 11h 01m
Length of Day
9h 55m
Waxing Gibbous, 78% of the Moon is Illuminated
Feb 9
Waxing Gibbous
Feb 14
Full
Feb 22
Last Quarter
Mar 1
New
Mar 8
First Quarter

Hourly Weather History & Observations

Time (PST) Temp. Windchill Dew Point Humidity Pressure Visibility Wind Dir Wind Speed Gust Speed Precip Events Conditions
12:00 AM 36.1 °F 30.6 °F 16.9 °F 46% 29.94 in - ENE 6.9 mph - N/A   Unknown
1:00 AM 35.4 °F 30.5 °F 18.5 °F 50% 29.96 in - ENE 5.8 mph - N/A   Unknown
2:00 AM 35.1 °F 30.1 °F 19.8 °F 54% 29.98 in - East 5.8 mph - N/A   Unknown
3:00 AM 35.6 °F 31.7 °F 20.1 °F 53% 30.01 in - ENE 4.6 mph - N/A   Unknown
4:00 AM 36 °F - 20 °F 38% 30.02 in - ENE 5.8 mph - -  
4:00 AM 35.6 °F 30.7 °F 19.8 °F 53% 30.02 in - ENE 5.8 mph - N/A   Unknown
5:00 AM 35.8 °F 30.9 °F 20.5 °F 54% 30.03 in - ENE 5.8 mph - N/A   Unknown
6:00 AM 35.6 °F 30.7 °F 20.8 °F 55% 30.02 in - East 5.8 mph - N/A   Unknown
7:00 AM 35.6 °F 30.7 °F 21.9 °F 58% 30.03 in - East 5.8 mph - N/A   Unknown
8:00 AM 35.8 °F 30.9 °F 23.0 °F 60% 30.04 in - East 5.8 mph - N/A   Unknown
9:00 AM 36.7 °F 32.0 °F 24.3 °F 61% 30.06 in - East 5.8 mph - N/A   Unknown
10:00 AM 38 °F - 28 °F 55% 30.06 in - East 11.5 mph - -  
10:00 AM 37.6 °F 30.0 °F 27.7 °F 67% 30.06 in - East 11.5 mph - N/A   Unknown
11:00 AM 37.8 °F 29.4 °F 28.0 °F 68% 30.08 in - ESE 13.8 mph - N/A   Unknown
12:00 PM 38.5 °F 30.7 °F 28.8 °F 68% 30.07 in - East 12.7 mph - N/A   Unknown
1:00 PM 38.8 °F 30.8 °F 28.6 °F 67% 30.06 in - ESE 13.8 mph - N/A   Unknown
2:00 PM 38.7 °F 30.1 °F 28.2 °F 66% 30.06 in - East 15.0 mph - N/A   Unknown
3:00 PM 39.2 °F 30.2 °F 29.8 °F 69% 30.05 in - ESE 17.3 mph - N/A   Unknown
4:00 PM 39 °F - 28 °F 55% 30.04 in - East 12.7 mph - -  
4:00 PM 38.8 °F 31.2 °F 28.4 °F 66% 30.04 in - East 12.7 mph - N/A   Unknown
5:00 PM 38.1 °F 30.2 °F 29.3 °F 71% 30.04 in - East 12.7 mph 18.4 mph N/A   Unknown
6:00 PM 37.0 °F 30.4 °F 30.4 °F 77% 30.05 in - East 9.2 mph - N/A   Unknown
7:00 PM 36.0 °F 30.3 °F 31.8 °F 85% 30.06 in - East 6.9 mph - N/A   Unknown
8:00 PM 36.0 °F 30.3 °F 31.3 °F 83% 30.05 in - ENE 6.9 mph - N/A   Unknown
9:00 PM 37.0 °F 31.6 °F 31.8 °F 81% 30.05 in - East 6.9 mph - 0.02 in   Unknown
10:00 PM 37 °F - 32 °F 76% 30.04 in - East 9.2 mph - -  
10:00 PM 37.4 °F 30.8 °F 31.8 °F 80% 30.04 in - East 9.2 mph - N/A   Unknown
11:00 PM 37.4 °F 30.8 °F 31.3 °F 79% 30.04 in - East 9.2 mph - N/A   Unknown